[[{"header":{"parameterUnit":"m.s-1","parameterCategory":1,"la1":30.2991,"la2":30.254,"lo1":-89.0895,"lo2":-89.0444,"dy":0.0017,"dx":0.0017,"nx":28,"ny":28,"refTime":"2024-07-19T09:00:00:Z","depth":0,"parameterNumber":2,"parameterNumberName":"U-component_of_WINDS"},"data":[0,0,0,0,0,0,0,0,0,0,0,0,0,0,0,0,0,0,0,0,0,0,0,0,0,0,0,0,0,0,0,0,0,0,0,0,0,0,0,0,0,0,0,0,0,0,0,0,0,0,0,0,0,0,0,0,0,0,1.079,1.0789,0,1.0749,1.0749,1.0748,1.0654,1.0652,1.065,1.0648,1.0609,1.061,1.0611,0,0,0,0,0,0,0,0,0,0,0,0,0,1.0787,1.0787,1.079,1.0789,1.0789,1.0749,1.0749,1.0748,1.0655,1.0652,1.065,1.0648,1.0609,1.061,1.0611,0,0,0,0,0,0,0,0,0,0,0,0,0,1.0772,1.0787,1.079,1.0737,1.0732,1.075,1.0749,1.0748,1.0655,1.0652,1.0649,1.0646,1.0609,1.061,1.0611,1.0677,0,0,1.0615,1.0615,0,0,0,0,0,0,0,0,1.0772,1.0772,1.0745,1.0741,1.0735,1.0704,1.0733,1.0725,1.0656,1.0684,1.0648,1.0645,1.0643,1.0641,1.064,1.0675,1.0674,1.0615,1.0616,1.0616,1.0616,0,0,0,0,0,0,0,1.0774,1.0773,1.0774,1.0745,1.0739,1.0716,1.071,1.0731,1.0681,1.0682,1.0675,1.0671,1.064,1.064,1.0639,1.0673,1.0615,1.0616,1.0617,1.0617,1.0759,1.0762,0,0,0,0,0,0,1.0782,1.0774,1.0775,1.0773,1.0747,1.0718,1.0712,1.0717,1.068,1.0672,1.0674,1.0667,1.0639,1.0638,1.0637,1.0711,1.0616,1.0617,1.0618,1.0756,1.0759,1.0763,0,0,0,0,0,0,1.0782,1.0783,1.0777,1.0772,1.0769,1.0721,1.0727,1.0718,1.0717,1.0674,1.0665,1.0682,1.0637,1.0635,1.0667,1.0708,1.0618,1.0619,1.0752,1.0757,1.0761,1.086,0,0,0,0,0,0,1.0783,1.0784,1.0808,1.0773,1.077,1.0808,1.073,1.0719,1.0719,1.071,1.068,1.0672,1.0634,1.0666,1.0669,1.0708,1.062,1.0748,1.0754,1.076,1.0853,1.0867,1.088,0,0,0,0,0,1.0783,1.0839,1.081,1.0811,1.0799,1.081,1.0808,1.0763,1.0723,1.0747,1.0719,1.0673,1.0704,1.067,1.0672,1.0713,1.0746,1.0753,1.0759,1.0847,1.0864,1.0879,0,0,0,0,0,0,1.0881,1.0833,1.0801,1.0846,1.0833,1.0794,1.0823,1.0783,1.0782,1.0773,1.0717,1.0711,1.0751,1.0735,1.0699,1.0774,1.0717,1.0725,1.0783,1.0799,1.0812,1.0815,1.0621,0,0,0,0,0,1.0908,1.092,1.0878,1.0922,1.0917,1.0872,1.0875,1.0841,1.0825,1.0819,1.0794,1.0781,1.0787,1.0792,1.0796,1.085,1.0842,1.0879,1.0892,1.0904,1.0911,1.0937,1.0952,1.0785,1.0785,1.0785,0,0,1.0964,1.0939,1.095,1.0941,1.0927,1.0941,1.0868,1.0886,1.0896,1.0822,1.085,1.0831,1.0813,1.0856,1.0874,1.0844,1.0955,1.0912,1.0922,1.0922,1.0945,1.0961,1.0975,1.079,1.0789,1.0788,0,0,1.1072,1.1055,1.1089,1.1076,1.1055,1.1024,1.1032,1.0999,1.0984,1.1011,1.0955,1.0966,1.0979,1.0967,1.0963,1.1067,1.1024,1.107,1.114,1.1166,1.1179,1.119,1.1226,1.124,1.1077,1.1077,1.1077,0,1.1144,1.1163,1.1112,1.1134,1.1131,1.1063,1.1097,1.1087,1.1069,1.1069,1.1036,1.1049,1.1032,1.1071,1.1096,1.1095,1.1102,1.1072,1.1181,1.1192,1.1202,1.1235,1.1249,1.1083,1.1082,1.1081,1.1081,0,1.1252,1.1266,1.1296,1.1278,1.1279,1.1307,1.1261,1.1268,1.1234,1.1206,1.1234,1.1212,1.1209,1.1216,1.1183,1.125,1.1232,1.1191,1.1132,1.1224,1.1254,1.1267,1.1091,1.1089,1.1087,1.1086,0,0,1.1421,1.1374,1.1386,1.1376,1.1347,1.1357,1.1382,1.1378,1.1384,1.1374,1.1393,1.1405,1.1366,1.1362,1.1327,1.135,1.1432,1.1306,1.1305,1.1329,1.1503,1.1533,1.1549,1.1404,1.1406,1.1408,1.1504,0,1.1521,1.156,1.1515,1.1563,1.1574,1.151,1.1531,1.1516,1.1492,1.1498,1.1471,1.1479,1.1429,1.1425,1.1446,1.1418,1.1466,1.1411,1.1421,1.1422,1.1426,1.1565,1.1597,1.1689,1.1516,1.1518,1.1519,0,1.1644,1.1637,1.1686,1.1653,1.1656,1.1676,1.1668,1.1675,1.1657,1.1637,1.1632,1.159,1.1612,1.1555,1.1585,1.1548,1.155,1.1537,1.1539,1.1538,1.1475,1.1566,1.1717,1.173,1.1538,1.1536,1.1535,0,1.176,1.1764,1.1793,1.1788,1.175,1.1765,1.175,1.1729,1.1729,1.1722,1.1722,1.1719,1.1717,1.1716,1.1674,1.1637,1.1708,1.1649,1.1692,1.1693,1.1709,1.1709,1.1862,1.1713,1.1713,1.1712,1.1712,0,1.1876,1.1909,1.1845,1.1863,1.1897,1.1845,1.188,1.1859,1.184,1.1853,1.1798,1.1812,1.1756,1.1764,1.1732,1.176,1.1761,1.1745,1.1736,1.1749,1.1751,1.1749,1.1741,1.1716,1.1715,1.1714,1.1714,0,1.2012,1.1971,1.1998,1.196,1.1951,1.1978,1.1945,1.196,1.1931,1.1948,1.1949,1.1905,1.1911,1.187,1.1869,1.1847,1.1891,1.1871,1.1897,1.189,1.1936,1.1931,1.2091,1.2109,1.1951,1.1952,1.1953,0,1.2088,1.2111,1.2074,1.2078,1.2066,1.2074,1.2073,1.2023,1.2025,1.2005,1.2023,1.2024,1.2022,1.2035,1.2003,1.2002,1.1981,1.2037,1.198,1.1993,1.198,1.1979,1.1981,1.2049,1.2051,1.2052,1.2054,0,1.2227,1.2205,1.2206,1.2199,1.22,1.2193,1.2182,1.2189,1.2135,1.214,1.2144,1.2143,1.2141,1.2143,1.2135,1.212,1.2078,1.2072,1.2082,1.2095,1.2108,1.21,1.1928,1.2068,1.2067,1.2066,1.2065,1.2064,1.2334,1.235,1.2327,1.233,1.2316,1.2307,1.2319,1.2292,1.2295,1.2288,1.2259,1.2269,1.2249,1.2234,1.2223,1.2231,1.2204,1.2218,1.2222,1.2226,1.2233,1.2108,1.2229,1.2229,1.2229,1.2228,1.2228,0,1.2468,1.245,1.2453,1.2439,1.2441,1.24,1.2386,1.2391,1.24,1.2385,1.2384,1.2389,1.2391,1.2359,1.2356,1.2368,1.2349,1.2369,1.2367,1.2364,1.2258,1.2249,1.2385,1.2385,1.2385,1.2385,1.2385,1.2385,1.2538,1.2564,1.254,1.2558,1.254,1.2548,1.2544,1.2535,1.2522,1.2531,1.2531,1.251,1.2488,1.2483,1.2483,1.2474,1.2475,1.2502,1.2486,1.2387,1.2372,1.2357,1.2349,1.2503,1.2503,1.2591,1.2592,1.2592]},{"header":{"parameterUnit":"m.s-1","parameterCategory":1,"la1":30.2991,"la2":30.254,"lo1":-89.0895,"lo2":-89.0444,"dy":0.0017,"dx":0.0017,"nx":28,"ny":28,"refTime":"2024-07-19T09:00:00:Z","depth":0,"parameterNumber":3,"parameterNumberName":"V-component_of_WINDS"},"data":[0,0,0,0,0,0,0,0,0,0,0,0,0,0,0,0,0,0,0,0,0,0,0,0,0,0,0,0,0,0,0,0,0,0,0,0,0,0,0,0,0,0,0,0,0,0,0,0,0,0,0,0,0,0,0,0,0,0,2.0358,2.0359,0,2.0394,2.0394,2.0394,2.0302,2.0299,2.0296,2.0294,2.0327,2.0331,2.0334,0,0,0,0,0,0,0,0,0,0,0,0,0,2.0208,2.0211,2.0358,2.0359,2.0359,2.0394,2.0394,2.0395,2.0303,2.0299,2.0296,2.0292,2.0326,2.033,2.0335,0,0,0,0,0,0,0,0,0,0,0,0,0,2.0262,2.0213,2.0358,2.0318,2.0314,2.0393,2.0394,2.0395,2.0303,2.0299,2.0295,2.0291,2.0325,2.033,2.0335,2.0455,0,0,2.0352,2.0354,0,0,0,0,0,0,0,0,2.0259,2.0267,2.0323,2.032,2.0317,2.0339,2.0353,2.0415,2.0304,2.0307,2.0294,2.0289,2.0335,2.0339,2.0355,2.0456,2.0458,2.0352,2.0355,2.0358,2.0359,0,0,0,0,0,0,0,2.0255,2.0265,2.0372,2.0324,2.032,2.0296,2.0299,2.0365,2.0345,2.0307,2.03,2.0306,2.0332,2.035,2.0355,2.0458,2.0352,2.0357,2.036,2.0362,2.0658,2.0663,0,0,0,0,0,0,2.0257,2.0263,2.0371,2.0373,2.0277,2.0303,2.0306,2.0336,2.0344,2.0341,2.0309,2.0301,2.0343,2.0349,2.0356,2.0496,2.0358,2.0363,2.0366,2.0654,2.0659,2.0665,0,0,0,0,0,0,2.0254,2.0268,2.037,2.0316,2.0327,2.031,2.0345,2.0339,2.0357,2.0346,2.0341,2.0332,2.034,2.0348,2.0431,2.0496,2.0365,2.037,2.0648,2.0656,2.0662,2.0777,0,0,0,0,0,0,2.025,2.0267,2.0313,2.0318,2.0331,2.0445,2.0349,2.0343,2.0367,2.0357,2.0365,2.0363,2.0337,2.0423,2.0436,2.0501,2.0374,2.0642,2.0652,2.066,2.0767,2.0787,2.0804,0,0,0,0,0,2.0245,2.0344,2.0316,2.0329,2.0388,2.0449,2.0456,2.0426,2.0373,2.0418,2.0411,2.0362,2.0487,2.0433,2.0446,2.0513,2.0638,2.0649,2.0659,2.0759,2.0783,2.0804,0,0,0,0,0,0,2.0346,2.0343,2.0313,2.0416,2.0434,2.0434,2.049,2.0452,2.0484,2.0473,2.0433,2.0436,2.0526,2.0527,2.0467,2.0629,2.0553,2.0567,2.0625,2.0647,2.0665,2.0663,2.0379,0,0,0,0,0,2.038,2.0431,2.0426,2.0517,2.0528,2.0508,2.0533,2.0508,2.0524,2.0531,2.053,2.0547,2.0589,2.0618,2.0657,2.0767,2.0767,2.082,2.0838,2.0853,2.0866,2.0923,2.0947,2.0699,2.0699,2.0699,0,0,2.0451,2.0456,2.0491,2.0538,2.0548,2.0601,2.0515,2.0574,2.0613,2.054,2.0618,2.0618,2.0634,2.0731,2.0773,2.0735,2.0934,2.0867,2.0879,2.0883,2.0937,2.096,2.0981,2.0706,2.0705,2.0704,0,0,2.0608,2.0617,2.0694,2.0707,2.0725,2.0711,2.0729,2.0735,2.0733,2.081,2.0757,2.0801,2.0876,2.089,2.0906,2.1068,2.1025,2.1082,2.1178,2.1235,2.1254,2.1271,2.1329,2.135,2.1094,2.1095,2.1095,0,2.0694,2.0772,2.0738,2.0802,2.0824,2.0761,2.0838,2.0852,2.0881,2.0897,2.0854,2.0946,2.0953,2.1052,2.1092,2.1107,2.1127,2.1081,2.1254,2.1271,2.1286,2.1341,2.1362,2.1101,2.1101,2.11,2.1099,0,2.0877,2.0932,2.0992,2.1023,2.1051,2.1121,2.1097,2.113,2.1102,2.1093,2.1172,2.1178,2.1217,2.1238,2.1211,2.1334,2.1309,2.1261,2.1184,2.1317,2.1368,2.1388,2.1111,2.1109,2.1107,2.1105,0,0,2.1097,2.1109,2.1131,2.1144,2.116,2.1201,2.1268,2.1306,2.1335,2.1357,2.1412,2.1477,2.1432,2.1451,2.1425,2.1475,2.1603,2.1421,2.142,2.1454,2.1737,2.1774,2.1798,2.1574,2.1578,2.1581,2.1736,0,2.1252,2.1367,2.1339,2.1453,2.1503,2.1445,2.1503,2.1518,2.1511,2.1551,2.1542,2.1589,2.1527,2.1538,2.1585,2.1578,2.1659,2.1566,2.1624,2.1626,2.1622,2.1825,2.1863,2.2009,2.1755,2.1759,2.1761,0,2.1447,2.1478,2.1598,2.1604,2.1624,2.1677,2.171,2.175,2.1766,2.1757,2.1779,2.1743,2.1808,2.1731,2.1819,2.1757,2.1779,2.1779,2.1783,2.1787,2.1702,2.1834,2.2054,2.2076,2.1792,2.1789,2.1787,0,2.1596,2.1667,2.1748,2.1761,2.1771,2.1809,2.1815,2.1826,2.1851,2.188,2.1896,2.1931,2.1951,2.1979,2.1953,2.1899,2.2046,2.1967,2.204,2.204,2.2073,2.2071,2.23,2.2088,2.2087,2.2087,2.2087,0,2.1771,2.1846,2.1815,2.1864,2.1947,2.1913,2.1995,2.1994,2.2005,2.2053,2.2004,2.2049,2.2013,2.2055,2.2036,2.2112,2.2121,2.2115,2.2109,2.2119,2.212,2.2133,2.2122,2.2093,2.2091,2.209,2.2089,0,2.195,2.1932,2.2017,2.2019,2.2022,2.2083,2.2084,2.213,2.2119,2.218,2.2193,2.2176,2.2223,2.22,2.2249,2.2236,2.2335,2.2315,2.233,2.2325,2.2399,2.2392,2.2644,2.2675,2.2443,2.2445,2.2447,0,2.2063,2.212,2.2129,2.2158,2.2168,2.2215,2.224,2.2209,2.2237,2.226,2.2303,2.2346,2.2379,2.2457,2.2448,2.2486,2.2466,2.2552,2.2471,2.248,2.2467,2.2464,2.2469,2.2568,2.2571,2.2573,2.2575,0,2.2265,2.2253,2.2292,2.2329,2.2361,2.2388,2.2411,2.2437,2.2406,2.2441,2.2489,2.2515,2.2565,2.2609,2.2641,2.2646,2.2605,2.26,2.2619,2.263,2.2636,2.2634,2.2374,2.2594,2.2592,2.2591,2.259,2.2589,2.2414,2.2462,2.2476,2.2521,2.2535,2.2558,2.2601,2.2596,2.2636,2.2675,2.2654,2.271,2.2724,2.2764,2.2774,2.2817,2.2783,2.281,2.2817,2.2824,2.2834,2.263,2.2823,2.2822,2.2821,2.2821,2.2821,0,2.2613,2.2619,2.2662,2.2695,2.2731,2.2691,2.2713,2.2746,2.2796,2.2813,2.2847,2.2902,2.2944,2.2939,2.2977,2.3013,2.2995,2.3024,2.3021,2.3022,2.2862,2.2842,2.3037,2.3037,2.3037,2.3037,2.3037,2.3037,2.2721,2.2799,2.279,2.2874,2.288,2.2935,2.2952,2.2972,2.2985,2.305,2.3085,2.3082,2.3089,2.3128,2.3164,2.3162,2.3178,2.3214,2.3204,2.3055,2.3033,2.3013,2.2994,2.3217,2.3218,2.336,2.3361,2.3362]}]]